Weather History for Wahpeton, ND

Change the Weather History Date:

Tuesday, November 13, 2012

  Actual Average (KFFM) Record (KFFM)
Temperature  
Mean Temperature 24 °F -  
Max Temperature 35 °F 34 °F 68 °F (1999)
Min Temperature 14 °F 20 °F -5 °F (1986)
Degree Days  
Heating Degree Days 40    
Moisture  
Dew Point 21 °F    
Average Humidity 83    
Maximum Humidity 93    
Minimum Humidity 69    
Precipitation  
Precipitation 0.00 in - - ()
Sea Level Pressure  
Sea Level Pressure 30.22 in    
Wind  
Wind Speed 5 mph (SSE)    
Max Wind Speed 9 mph    
Max Gust Speed -    
Visibility 10 miles    
Events      
Averages and records for this station are not official NWS values.
T = Trace of Precipitation, MM = Missing Value Source: NWS Daily Summary

Daily Weather History Graph

Daily Weather History Graph

Search for Another Location

Airport:

Trip Planner

Search our weather history database for the weather conditions in past years. The results will help you decide how hot, cold, wet, or windy it might be!

Date:

Astronomy

Nov. 13, 2012 Rise Set
Actual Time 7:25 AM CST 4:55 PM CST
Civil Twilight 6:53 AM CST 5:28 PM CST
Nautical Twilight 6:16 AM CST 6:04 PM CST
Astronomical Twilight 5:41 AM CST 6:39 PM CST
Moon 7:05 AM CST (11/13) 4:47 PM CST (11/13)
Length of Visible Light 10h 35m
Length of Day
9h 30m
Waning Crescent, 0% of the Moon is Illuminated
Nov 13
Waning Crescent
Nov 13
New
Nov 20
First Quarter
Nov 28
Full
Dec 6
Last Quarter

Hourly Weather History & Observations

Time (CST) Temp. Windchill Dew Point Humidity Pressure Visibility Wind Dir Wind Speed Gust Speed Precip Events Conditions
12:15 AM 14.0 °F 6.5 °F 10.4 °F 86% 30.23 in 10.0 mi SSE 4.6 mph - N/A   Clear
12:35 AM 14.0 °F 5.1 °F 10.4 °F 86% 30.23 in 10.0 mi SE 5.8 mph - N/A   Clear
12:55 AM 14.0 °F 5.1 °F 10.4 °F 86% 30.22 in 10.0 mi SE 5.8 mph - N/A   Clear
1:15 AM 14.0 °F 5.1 °F 10.4 °F 86% 30.22 in 10.0 mi SSE 5.8 mph - N/A   Clear
1:35 AM 14.0 °F 5.1 °F 10.4 °F 86% 30.22 in 10.0 mi SE 5.8 mph - N/A   Clear
1:55 AM 14.0 °F 3.9 °F 10.4 °F 86% 30.22 in 10.0 mi SE 6.9 mph - N/A   Clear
2:15 AM 14.0 °F 5.1 °F 10.4 °F 86% 30.22 in 10.0 mi SE 5.8 mph - N/A   Clear
2:35 AM 14.0 °F 2.9 °F 10.4 °F 86% 30.22 in 10.0 mi SSE 8.1 mph - N/A   Clear
2:55 AM 14.0 °F 3.9 °F 10.4 °F 86% 30.22 in 10.0 mi SSE 6.9 mph - N/A   Clear
3:15 AM 14.0 °F 2.9 °F 10.4 °F 86% 30.22 in 10.0 mi SSE 8.1 mph - N/A   Clear
3:35 AM 15.8 °F 5.1 °F 12.2 °F 86% 30.21 in 10.0 mi SSE 8.1 mph - N/A   Clear
3:55 AM 14.0 °F 2.9 °F 10.4 °F 86% 30.22 in 10.0 mi SSE 8.1 mph - N/A   Clear
4:15 AM 14.0 °F 3.9 °F 12.2 °F 93% 30.21 in 10.0 mi SSE 6.9 mph - N/A   Clear
4:35 AM 14.0 °F 5.1 °F 12.2 °F 93% 30.21 in 10.0 mi SSE 5.8 mph - N/A   Clear
4:55 AM 14.0 °F 5.1 °F 12.2 °F 93% 30.22 in 10.0 mi SSE 5.8 mph - N/A   Clear
5:15 AM 14.0 °F 6.5 °F 12.2 °F 93% 30.22 in 10.0 mi SE 4.6 mph - N/A   Clear
5:35 AM 14.0 °F 6.5 °F 12.2 °F 93% 30.23 in 10.0 mi SSE 4.6 mph - N/A   Clear
5:55 AM 15.8 °F 7.2 °F 12.2 °F 86% 30.22 in 10.0 mi SE 5.8 mph - N/A   Clear
6:15 AM 15.8 °F 7.2 °F 12.2 °F 86% 30.23 in 10.0 mi SSE 5.8 mph - N/A   Clear
6:35 AM 17.6 °F 10.7 °F 14.0 °F 86% 30.23 in 10.0 mi SSE 4.6 mph - N/A   Clear
6:55 AM 17.6 °F 10.7 °F 14.0 °F 86% 30.23 in 10.0 mi SSE 4.6 mph - N/A   Clear
7:15 AM 17.6 °F 10.7 °F 14.0 °F 86% 30.23 in 10.0 mi SE 4.6 mph - N/A   Clear
7:35 AM 17.6 °F 10.7 °F 14.0 °F 86% 30.23 in 10.0 mi SE 4.6 mph - N/A   Clear
7:55 AM 19.4 °F 14.3 °F 15.8 °F 86% 30.23 in 10.0 mi SE 3.5 mph - N/A   Clear
8:15 AM 21.2 °F 14.9 °F 17.6 °F 86% 30.23 in 10.0 mi SSE 4.6 mph - N/A   Clear
8:35 AM 21.2 °F 13.6 °F 17.6 °F 86% 30.23 in 10.0 mi SSE 5.8 mph - N/A   Clear
8:55 AM 23.0 °F 18.4 °F 19.4 °F 86% 30.24 in 10.0 mi SSE 3.5 mph - N/A   Clear
9:15 AM 26.6 °F 22.6 °F 21.2 °F 80% 30.24 in 10.0 mi SSE 3.5 mph - N/A   Clear
9:35 AM 26.6 °F - 21.2 °F 80% 30.24 in 10.0 mi Calm Calm - N/A   Clear
9:55 AM 28.4 °F 24.6 °F 23.0 °F 80% 30.25 in 10.0 mi South 3.5 mph - N/A   Clear
10:15 AM 28.4 °F 23.3 °F 23.0 °F 80% 30.25 in 10.0 mi South 4.6 mph - N/A   Clear
10:35 AM 30.2 °F 25.4 °F 23.0 °F 75% 30.25 in 10.0 mi South 4.6 mph - N/A   Clear
10:55 AM 30.2 °F 26.7 °F 23.0 °F 75% 30.25 in 10.0 mi South 3.5 mph - N/A   Scattered Clouds
11:15 AM 32.0 °F 28.7 °F 23.0 °F 69% 30.24 in 10.0 mi South 3.5 mph - N/A   Mostly Cloudy
11:35 AM 32.0 °F 28.7 °F 23.0 °F 69% 30.23 in 10.0 mi SSE 3.5 mph - N/A   Scattered Clouds
11:55 AM 32.0 °F 28.7 °F 23.0 °F 69% 30.22 in 10.0 mi South 3.5 mph - N/A   Mostly Cloudy
12:15 PM 32.0 °F 28.7 °F 23.0 °F 69% 30.21 in 10.0 mi SSE 3.5 mph - N/A   Mostly Cloudy
12:55 PM 32.0 °F 26.4 °F 24.8 °F 75% 30.21 in 10.0 mi SSE 5.8 mph - N/A   Scattered Clouds
1:15 PM 33.8 °F 28.6 °F 24.8 °F 70% 30.20 in 10.0 mi South 5.8 mph - N/A   Scattered Clouds
1:35 PM 35.6 °F 28.6 °F 26.6 °F 70% 30.20 in 10.0 mi South 9.2 mph - N/A   Scattered Clouds
1:55 PM 35.6 °F 29.9 °F 26.6 °F 70% 30.20 in 10.0 mi South 6.9 mph - N/A   Scattered Clouds
2:15 PM 35.6 °F 30.7 °F 26.6 °F 70% 30.20 in 10.0 mi SSW 5.8 mph - N/A   Clear
2:35 PM 35.6 °F 29.9 °F 26.6 °F 70% 30.20 in 10.0 mi South 6.9 mph - N/A   Scattered Clouds
2:55 PM 35.6 °F 30.7 °F 26.6 °F 70% 30.20 in 10.0 mi South 5.8 mph - N/A   Scattered Clouds
3:15 PM 35.6 °F 30.7 °F 26.6 °F 70% 30.20 in 10.0 mi South 5.8 mph - N/A   Clear
3:35 PM 35.6 °F 31.7 °F 26.6 °F 70% 30.20 in 10.0 mi South 4.6 mph - N/A   Mostly Cloudy
3:55 PM 35.6 °F 32.8 °F 26.6 °F 70% 30.20 in 10.0 mi South 3.5 mph - N/A   Overcast
4:15 PM 35.6 °F - 28.4 °F 75% 30.20 in 10.0 mi Calm Calm - N/A   Overcast
4:35 PM 35.6 °F - 28.4 °F 75% 30.20 in 10.0 mi Calm Calm - N/A   Overcast
4:55 PM 33.8 °F - 28.4 °F 81% 30.20 in 10.0 mi Calm Calm - N/A   Overcast
5:15 PM 33.8 °F - 28.4 °F 81% 30.20 in 10.0 mi Calm Calm - N/A   Overcast
5:35 PM 33.8 °F 30.8 °F 28.4 °F 81% 30.20 in 10.0 mi SE 3.5 mph - N/A   Overcast
5:55 PM 33.8 °F - 28.4 °F 81% 30.21 in 10.0 mi Calm Calm - N/A   Overcast
6:15 PM 33.8 °F 29.6 °F 28.4 °F 81% 30.20 in 10.0 mi ESE 4.6 mph - N/A   Overcast
6:35 PM 33.8 °F 30.8 °F 28.4 °F 81% 30.20 in 10.0 mi ESE 3.5 mph - N/A   Overcast
6:55 PM 32.0 °F 28.7 °F 28.4 °F 87% 30.21 in 10.0 mi East 3.5 mph - N/A   Mostly Cloudy
7:15 PM 32.0 °F 28.7 °F 28.4 °F 87% 30.21 in 10.0 mi East 3.5 mph - N/A   Scattered Clouds
7:35 PM 32.0 °F 28.7 °F 28.4 °F 87% 30.21 in 10.0 mi East 3.5 mph - N/A   Mostly Cloudy
7:55 PM 32.0 °F - 28.4 °F 87% 30.21 in 10.0 mi Calm Calm - N/A   Overcast
8:15 PM 32.0 °F - 28.4 °F 87% 30.21 in 10.0 mi Calm Calm - N/A   Overcast
8:35 PM 32.0 °F - 28.4 °F 87% 30.21 in 10.0 mi Calm Calm - N/A   Overcast
8:55 PM 32.0 °F - 28.4 °F 87% 30.21 in 10.0 mi Calm Calm - N/A   Mostly Cloudy
9:15 PM 32.0 °F 27.5 °F 28.4 °F 87% 30.21 in 10.0 mi SE 4.6 mph - N/A   Overcast
9:35 PM 32.0 °F 28.7 °F 28.4 °F 87% 30.21 in 10.0 mi SSE 3.5 mph - N/A   Overcast
9:55 PM 30.2 °F 26.7 °F 26.6 °F 86% 30.21 in 10.0 mi SSE 3.5 mph - N/A   Mostly Cloudy
10:15 PM 32.0 °F - 28.4 °F 87% 30.21 in 10.0 mi Calm Calm - N/A   Mostly Cloudy
10:35 PM 28.4 °F 23.3 °F 24.8 °F 86% 30.21 in 10.0 mi WNW 4.6 mph - N/A   Scattered Clouds
10:55 PM 28.4 °F 24.6 °F 26.6 °F 93% 30.22 in 10.0 mi NW 3.5 mph - N/A   Scattered Clouds
11:15 PM 28.4 °F - 26.6 °F 93% 30.21 in 10.0 mi Calm Calm - N/A   Mostly Cloudy
11:35 PM 28.4 °F - 26.6 °F 93% 30.21 in 10.0 mi Calm Calm - N/A   Mostly Cloudy
11:55 PM 26.6 °F - 24.8 °F 93% 30.21 in 10.0 mi Calm Calm - N/A   Scattered Clouds